Tracking 19576 objects as of 17-Feb-2019
HD Live streaming from Space Station
objects crossing your sky now

FENGYUN 1C DEB

Track FENGYUN 1C DEB now!
10-day predictions


NORAD ID: 30306
Int'l Code: 1999-025ZT
Perigee: 746.4 km
Apogee: 938.3 km
Inclination: 98.8 °
Period: 101.6 minutes
Semi major axis: 7213 km
RCS: 0.0194 m2 (small)
Launch date: May 10, 1999
Source: People's Republic of China (PRC)
Launch site: Taiyaun Space Center, China (TSC)

Note: This is SATELLITE DEBRIS
aabbcc
Your satellite tracking list
Your tracking list is empty




NASA's NSSDC Master Catalog

Two Line Element Set (TLE):
1 30306U 99025ZT  19047.84278611 +.00000357 +00000-0 +18326-3 0  9993
2 30306 098.8099 097.6429 0133049 341.4839 018.1519 14.17093345623245
Source of the keplerian elements: AFSPC